Hourly Data Report for October 07, 2012

All times are specified in Local Standard Time (LST). Add 1 hour to adjust for Daylight Saving Time where and when it is observed.

ST LEONARD CS
NEW BRUNSWICK

47°09'28.050" N
67°49'55.014" W
245.00 m
810I001
71019
WIY

Download Data

Hourly Data (October 2012)
Hourly Data Report for October 7, 2012
Temp Definition
°C
Dew Point Temp Definition
°C
Rel Hum Definition
%
Wind Dir Definition
10's deg

Wind Spd Definition
km/h
Visibility Definition
km
Stn Press Definition
kPa
Hmdx Definition


Wind Chill Definition


Weather Definition


TIME
00:00 6.2 5.7 97 22 2   97.75     LegendNANA
01:00 5.8 5.2 96 21 6   97.79     LegendNANA
02:00 6.5 5.6 94 22 7   97.83     LegendNANA
03:00 6.3 5.4 94 23 7   97.85     LegendNANA
04:00 5.8 4.7 93 24 11   97.96     LegendNANA
05:00 5.2 4.2 93 25 7   98.04     LegendNANA
06:00 4.8 4.0 95 23 6   98.10     LegendNANA
07:00 2.9 2.4 97   0   98.21     LegendNANA
08:00 6.3 4.7 89 28 2   98.30     LegendNANA
09:00 8.3 5.8 84 23 9   98.42     LegendNANA
10:00 8.2 4.7 79 27 11   98.47     LegendNANA
11:00 8.7 5.1 78 31 17   98.47     LegendNANA
12:00 8.0 4.2 77 33 9   98.52     LegendNANA
13:00 8.2 4.6 78 30 7   98.51     LegendNANA
14:00 8.5 4.0 73 28 7   98.53     LegendNANA
15:00 8.4 4.1 74 24 6   98.57     LegendNANA
16:00 9.0 4.1 71 23 2   98.57     LegendNANA
17:00 8.9 5.0 77   0   98.61     LegendNANA
18:00 7.8 6.2 90   0   98.63     LegendNANA
19:00 7.1 5.4 89 25 4   98.69     LegendNANA
20:00 6.9 4.6 85 26 4   98.73     LegendNANA
21:00 6.4 4.6 88   0   98.72     LegendNANA
22:00 5.0 4.0 93   0   98.67     LegendNANA
23:00 5.3 4.1 92 20 4   98.71     LegendNANA

Notes on Data Quality.

Legend

  • E = Estimated
  • M = Missing
  • NA = Not Available
  • ‡ = Partner data that is not subject to review by the National Climate Archives
Date modified: